カタログに戻る

IRIDIUM 112

運用中通信PO
NORAD 41925·PAYLOAD·🇺🇸 United States

打ち上げ Jan 14, 2017 から Vandenberg Space Force Base

Loading…

次のパス (今後24時間)

TLE

最新Source: CelesTrak SupGP

元期: Sep 14, 2026, 21:44 UTC

1 41925C 17003J   26257.90590278  .00002871  00000+0  10266-2 0  2575
2 41925  86.3945  50.7613 0002179  94.7448 163.6109 14.34216774    11

AllMySatでIRIDIUM 112をリアルタイム追跡

Download on the App Store